�������l�o���
Date,Time,MP-1(��Sv/h),MP-2(��Sv/h),MP-3(��Sv/h),MP-4(��Sv/h),MP-5(��Sv/h),MP-6(��Sv/h),MP-7(��Sv/h),MP-8(��Sv/h),����,����(m/s),���J
2017/11/20,00:00,0.929,1.508,0.953,1.787,1.229,0.502,0.914,0.857,�k�k��,6.2,��
2017/11/20,00:10,0.928,1.506,0.953,1.785,1.227,0.501,0.914,0.856,�k��,5.4,��
2017/11/20,00:20,0.928,1.507,0.954,1.789,1.229,0.500,0.915,0.854,���k��,6.1,��
2017/11/20,00:30,0.927,1.506,0.955,1.787,1.227,0.500,0.915,0.856,��,6.1,��
2017/11/20,00:40,0.929,1.504,0.954,1.786,1.230,0.501,0.914,0.856,��,5.4,��
2017/11/20,00:50,0.928,1.503,0.955,1.786,1.225,0.501,0.911,0.856,���쐼,6.2,��
2017/11/20,01:00,0.929,1.505,0.955,1.788,1.226,0.500,0.915,0.856,���쐼,5.4,��
2017/11/20,01:10,0.928,1.503,0.954,1.783,1.228,0.500,0.914,0.856,���쐼,4.1,��
2017/11/20,01:20,0.927,1.505,0.955,1.785,1.226,0.502,0.913,0.856,��,5.8,��
2017/11/20,01:30,0.927,1.504,0.952,1.784,1.228,0.500,0.914,0.856,��,5.9,��
2017/11/20,01:40,0.927,1.502,0.954,1.784,1.227,0.502,0.915,0.856,���쐼,4.8,��
2017/11/20,01:50,0.928,1.504,0.953,1.787,1.225,0.502,0.913,0.855,���쐼,5.3,��
2017/11/20,02:00,0.928,1.504,0.953,1.784,1.225,0.499,0.914,0.853,���쐼,6.0,��
2017/11/20,02:10,0.927,1.503,0.955,1.784,1.224,0.501,0.915,0.854,���쐼,6.6,��
2017/11/20,02:20,0.928,1.505,0.954,1.786,1.229,0.501,0.912,0.855,���쐼,5.4,��
2017/11/20,02:30,0.928,1.503,0.952,1.784,1.224,0.500,0.914,0.856,�쐼,5.4,��
2017/11/20,02:40,0.929,1.503,0.953,1.787,1.226,0.499,0.913,0.856,�쐼,4.4,��
2017/11/20,02:50,0.928,1.503,0.953,1.786,1.227,0.500,0.913,0.856,�쐼,3.8,��
2017/11/20,03:00,0.927,1.506,0.953,1.787,1.227,0.502,0.914,0.855,��,2.6,��
2017/11/20,03:10,0.927,1.506,0.951,1.785,1.225,0.500,0.913,0.855,���쐼,2.2,��
2017/11/20,03:20,0.926,1.502,0.952,1.787,1.226,0.500,0.914,0.855,���쐼,1.9,��
2017/11/20,03:30,0.926,1.504,0.952,1.782,1.227,0.501,0.911,0.855,��,2.6,��
2017/11/20,03:40,0.928,1.505,0.953,1.786,1.223,0.501,0.913,0.854,���k��,3.1,��
2017/11/20,03:50,0.926,1.500,0.952,1.783,1.225,0.500,0.914,0.855,���k��,2.8,��
2017/11/20,04:00,0.926,1.503,0.953,1.784,1.224,0.500,0.912,0.856,���k��,2.5,��
2017/11/20,04:10,0.926,1.504,0.953,1.784,1.225,0.499,0.913,0.855,�k��,2.2,��
2017/11/20,04:20,0.927,1.503,0.951,1.787,1.225,0.500,0.913,0.854,�k��,2.8,��
2017/11/20,04:30,0.927,1.500,0.951,1.782,1.221,0.497,0.911,0.855,���k��,1.7,��
2017/11/20,04:40,0.926,1.504,0.953,1.784,1.225,0.499,0.912,0.855,�k��,2.3,��
2017/11/20,04:50,0.924,1.503,0.951,1.785,1.224,0.500,0.913,0.854,�k��,2.9,��
2017/11/20,05:00,0.925,1.498,0.952,1.783,1.224,0.500,0.912,0.856,�k��,2.9,��
2017/11/20,05:10,0.927,1.503,0.953,1.780,1.225,0.500,0.910,0.855,�k��,3.4,��
2017/11/20,05:20,0.927,1.502,0.951,1.784,1.225,0.499,0.911,0.854,���k��,4.2,��
2017/11/20,05:30,0.926,1.502,0.950,1.782,1.225,0.499,0.913,0.854,���k��,3.6,��
2017/11/20,05:40,0.926,1.502,0.953,1.784,1.226,0.499,0.913,0.854,���k��,3.1,��
2017/11/20,05:50,0.927,1.501,0.955,1.786,1.225,0.499,0.912,0.854,���k��,3.9,��
2017/11/20,06:00,0.927,1.499,0.952,1.786,1.224,0.498,0.909,0.853,���k��,4.3,��
2017/11/20,06:10,0.926,1.505,0.951,1.788,1.224,0.497,0.912,0.856,���k��,3.6,��
2017/11/20,06:20,0.926,1.504,0.952,1.784,1.224,0.499,0.909,0.854,��,2.6,��
2017/11/20,06:30,0.926,1.504,0.952,1.782,1.223,0.498,0.912,0.855,���k��,1.7,��
2017/11/20,06:40,0.926,1.501,0.952,1.782,1.226,0.500,0.912,0.853,���k��,2.9,��
2017/11/20,06:50,0.926,1.500,0.954,1.786,1.224,0.499,0.913,0.854,���k��,2.0,��
2017/11/20,07:00,0.928,1.500,0.953,1.784,1.222,0.499,0.913,0.855,���쐼,1.5,��
2017/11/20,07:10,0.927,1.503,0.950,1.784,1.222,0.499,0.912,0.856,��,1.5,��
2017/11/20,07:20,0.928,1.500,0.954,1.786,1.224,0.499,0.911,0.854,���k��,3.1,��
2017/11/20,07:30,0.927,1.499,0.951,1.784,1.224,0.499,0.914,0.854,���k��,3.7,��
2017/11/20,07:40,0.925,1.503,0.952,1.784,1.225,0.501,0.914,0.854,�k��,3.8,��
2017/11/20,07:50,0.927,1.502,0.952,1.782,1.225,0.499,0.913,0.854,�k��,5.4,��
2017/11/20,08:00,0.927,1.501,0.952,1.786,1.224,0.498,0.914,0.854,���k��,5.2,��
2017/11/20,08:10,0.928,1.501,0.953,1.785,1.223,0.500,0.913,0.855,���k��,4.3,��
2017/11/20,08:20,0.927,1.503,0.953,1.784,1.225,0.499,0.914,0.855,���k��,4.4,��
2017/11/20,08:30,0.928,1.503,0.951,1.785,1.224,0.499,0.915,0.853,���k��,5.2,��
2017/11/20,08:40,0.928,1.504,0.950,1.786,1.222,0.499,0.915,0.854,��,5.3,��
2017/11/20,08:50,0.927,1.500,0.953,1.786,1.222,0.500,0.915,0.855,��,5.9,��
2017/11/20,09:00,0.928,1.500,0.953,1.784,1.228,0.500,0.914,0.855,��,5.6,��
2017/11/20,09:10,0.927,1.502,0.951,1.786,1.224,0.499,0.913,0.855,��,5.1,��
2017/11/20,09:20,0.927,1.499,0.955,1.785,1.227,0.500,0.914,0.855,���k��,4.5,��
2017/11/20,09:30,0.928,1.498,0.953,1.789,1.225,0.500,0.913,0.857,���k��,6.2,��
2017/11/20,09:40,0.929,1.501,0.955,1.787,1.227,0.499,0.913,0.856,���k��,6.9,��
2017/11/20,09:50,0.929,1.501,0.953,1.787,1.228,0.500,0.915,0.857,���k��,6.1,��
2017/11/20,10:00,0.929,1.501,0.955,1.790,1.225,0.501,0.916,0.856,���k��,4.5,��
2017/11/20,10:10,0.930,1.504,0.954,1.785,1.226,0.500,0.916,0.856,�k��,2.6,��
2017/11/20,10:20,0.931,1.501,0.956,1.787,1.227,0.500,0.913,0.856,�k��,4.1,��
2017/11/20,10:30,0.930,1.503,0.955,1.788,1.226,0.499,0.913,0.856,���k��,5.0,��
2017/11/20,10:40,0.930,1.503,0.957,1.788,1.228,0.501,0.912,0.856,�k��,3.8,��
2017/11/20,10:50,0.931,1.502,0.954,1.787,1.228,0.501,0.914,0.856,�k��,4.0,��
2017/11/20,11:00,0.931,1.503,0.956,1.790,1.227,0.501,0.919,0.857,���k��,4.1,��
2017/11/20,11:10,0.931,1.505,0.953,1.790,1.228,0.502,0.918,0.857,���k��,3.6,��
2017/11/20,11:20,0.930,1.503,0.957,1.790,1.229,0.502,0.919,0.857,���k��,2.3,��
2017/11/20,11:30,0.933,1.505,0.955,1.789,1.226,0.500,0.916,0.856,�k�k��,1.5,��
2017/11/20,11:40,0.930,1.503,0.956,1.789,1.229,0.502,0.915,0.856,�k�k��,1.7,��
2017/11/20,11:50,0.931,1.505,0.956,1.788,1.228,0.501,0.915,0.857,�k�k��,2.6,��
2017/11/20,12:00,0.932,1.500,0.956,1.788,1.226,0.502,0.915,0.858,�k,1.5,��
2017/11/20,12:10,0.933,1.509,0.957,1.791,1.229,0.501,0.914,0.857,�k�k��,2.8,��
2017/11/20,12:20,0.932,1.505,0.958,1.792,1.231,0.500,0.915,0.857,���k��,2.8,��
2017/11/20,12:30,0.931,1.506,0.956,1.791,1.229,0.501,0.913,0.858,��,2.8,��
2017/11/20,12:40,0.931,1.508,0.957,1.790,1.229,0.500,0.914,0.858,���쓌,2.0,��
2017/11/20,12:50,0.933,1.505,0.958,1.791,1.230,0.501,0.913,0.857,���쓌,2.3,��
2017/11/20,13:00,0.932,1.508,0.957,1.790,1.229,0.501,0.915,0.857,���쓌,2.3,��
2017/11/20,13:10,0.931,1.504,0.956,1.789,1.231,0.503,0.915,0.859,���쓌,2.9,��
2017/11/20,13:20,0.933,1.505,0.958,1.791,1.229,0.501,0.915,0.857,���쓌,2.9,��
2017/11/20,13:30,0.933,1.507,0.956,1.790,1.229,0.500,0.915,0.857,��,3.0,��
2017/11/20,13:40,0.933,1.505,0.954,1.790,1.230,0.501,0.914,0.858,��,1.7,��
2017/11/20,13:50,0.931,1.505,0.956,1.792,1.228,0.502,0.913,0.857,���쓌,2.5,��
2017/11/20,14:00,0.933,1.508,0.957,1.791,1.232,0.501,0.912,0.858,���k��,2.0,��
2017/11/20,14:10,0.930,1.508,0.957,1.789,1.231,0.503,0.909,0.856,�k��,1.9,��
2017/11/20,14:20,0.929,1.505,0.955,1.790,1.229,0.501,0.910,0.859,��,2.3,��
2017/11/20,14:30,0.932,1.505,0.957,1.790,1.230,0.502,0.911,0.857,���쓌,2.3,��
2017/11/20,14:40,0.932,1.505,0.958,1.790,1.232,0.502,0.910,0.857,���쓌,3.3,��
2017/11/20,14:50,0.934,1.501,0.957,1.791,1.231,0.502,0.913,0.855,���쓌,2.9,��
2017/11/20,15:00,0.930,1.508,0.955,1.789,1.231,0.503,0.911,0.857,�쓌,3.0,��
2017/11/20,15:10,0.931,1.506,0.957,1.790,1.228,0.501,0.915,0.857,���쓌,2.6,��
2017/11/20,15:20,0.932,1.507,0.957,1.793,1.228,0.503,0.913,0.858,�쓌,2.9,��
2017/11/20,15:30,0.932,1.505,0.956,1.788,1.231,0.501,0.913,0.858,���쓌,3.5,��
2017/11/20,15:40,0.933,1.505,0.958,1.787,1.229,0.501,0.915,0.858,�쓌,3.5,��
2017/11/20,15:50,0.934,1.505,0.956,1.790,1.229,0.501,0.913,0.857,�쓌,3.1,��
2017/11/20,16:00,0.932,1.506,0.955,1.791,1.227,0.501,0.912,0.856,���쓌,3.7,��
2017/11/20,16:10,0.930,1.505,0.956,1.791,1.229,0.503,0.914,0.857,�쓌,3.7,��
2017/11/20,16:20,0.929,1.506,0.958,1.789,1.230,0.501,0.914,0.858,�쓌,3.2,��
2017/11/20,16:30,0.932,1.507,0.957,1.790,1.231,0.502,0.913,0.857,�쓌,1.9,��
2017/11/20,16:40,0.931,1.505,0.957,1.790,1.228,0.501,0.913,0.858,���쓌,3.6,��
2017/11/20,16:50,0.932,1.507,0.957,1.791,1.231,0.501,0.915,0.857,��쓌,3.9,��
2017/11/20,17:00,0.935,1.510,0.955,1.790,1.229,0.501,0.912,0.858,�쓌,4.2,��
2017/11/20,17:10,0.931,1.511,0.959,1.791,1.231,0.503,0.915,0.857,�쓌,4.5,��
2017/11/20,17:20,0.931,1.507,0.957,1.788,1.230,0.503,0.915,0.858,���쓌,4.6,�L
2017/11/20,17:30,0.933,1.510,0.957,1.789,1.230,0.502,0.914,0.856,�쓌,4.2,��
2017/11/20,17:40,0.933,1.509,0.958,1.791,1.232,0.501,0.914,0.857,��쓌,5.3,��
2017/11/20,17:50,0.929,1.511,0.958,1.792,1.229,0.502,0.914,0.856,��쓌,3.6,��
2017/11/20,18:00,0.929,1.508,0.956,1.792,1.229,0.503,0.915,0.857,��쓌,3.7,��
2017/11/20,18:10,0.932,1.509,0.957,1.790,1.229,0.503,0.913,0.856,��,3.4,��
2017/11/20,18:20,0.930,1.508,0.956,1.789,1.231,0.502,0.916,0.857,��,2.8,��
2017/11/20,18:30,0.931,1.506,0.956,1.787,1.229,0.501,0.913,0.856,��,3.0,��
2017/11/20,18:40,0.931,1.507,0.958,1.789,1.231,0.502,0.914,0.857,��,3.3,��
2017/11/20,18:50,0.931,1.508,0.958,1.788,1.230,0.501,0.913,0.856,��,2.2,�L
2017/11/20,19:00,0.934,1.511,0.957,1.791,1.228,0.501,0.913,0.855,��쐼,2.5,�L
2017/11/20,19:10,0.934,1.508,0.957,1.790,1.227,0.502,0.914,0.856,��,2.6,�L
2017/11/20,19:20,0.930,1.509,0.961,1.790,1.230,0.502,0.914,0.857,��,3.3,��
2017/11/20,19:30,0.931,1.506,0.959,1.791,1.228,0.502,0.913,0.857,��쓌,3.5,��
2017/11/20,19:40,0.935,1.508,0.958,1.792,1.228,0.504,0.915,0.855,��쓌,1.7,��
2017/11/20,19:50,0.932,1.509,0.957,1.791,1.227,0.500,0.915,0.856,��,2.2,��
2017/11/20,20:00,0.931,1.508,0.957,1.791,1.230,0.502,0.915,0.857,��,2.6,��
2017/11/20,20:10,0.932,1.508,0.956,1.788,1.228,0.503,0.914,0.855,��쐼,2.6,��
2017/11/20,20:20,0.933,1.506,0.958,1.789,1.228,0.503,0.913,0.856,��쐼,3.2,��
2017/11/20,20:30,0.931,1.506,0.956,1.789,1.227,0.502,0.913,0.857,��,3.5,��
2017/11/20,20:40,0.931,1.505,0.957,1.787,1.227,0.502,0.912,0.856,��,4.3,��
2017/11/20,20:50,0.931,1.509,0.955,1.789,1.229,0.503,0.915,0.856,��쐼,3.5,��
2017/11/20,21:00,0.933,1.506,0.955,1.789,1.230,0.503,0.912,0.857,�쐼,3.4,��
2017/11/20,21:10,0.930,1.508,0.956,1.787,1.229,0.502,0.913,0.858,�쐼,3.4,��
2017/11/20,21:20,0.931,1.504,0.956,1.789,1.228,0.503,0.912,0.857,�쐼,3.4,��
2017/11/20,21:30,0.934,1.509,0.956,1.788,1.230,0.503,0.913,0.857,��쐼,3.0,��
2017/11/20,21:40,0.931,1.505,0.957,1.788,1.230,0.501,0.911,0.857,��쐼,3.3,��
2017/11/20,21:50,0.931,1.507,0.956,1.788,1.228,0.502,0.912,0.857,��쐼,3.3,��
2017/11/20,22:00,0.934,1.507,0.956,1.788,1.228,0.501,0.911,0.857,��쐼,3.8,��
2017/11/20,22:10,0.930,1.508,0.956,1.789,1.230,0.502,0.912,0.858,��쐼,4.2,��
2017/11/20,22:20,0.929,1.507,0.957,1.786,1.228,0.502,0.913,0.856,�쐼,3.9,��
2017/11/20,22:30,0.929,1.506,0.955,1.789,1.227,0.503,0.913,0.857,��쐼,5.0,��
2017/11/20,22:40,0.931,1.504,0.955,1.788,1.227,0.503,0.914,0.854,��쐼,5.0,��
2017/11/20,22:50,0.932,1.506,0.957,1.788,1.229,0.502,0.914,0.857,�쐼,6.8,��
2017/11/20,23:00,0.931,1.505,0.957,1.786,1.230,0.503,0.913,0.857,��쐼,6.5,��
2017/11/20,23:10,0.933,1.506,0.957,1.791,1.227,0.503,0.911,0.857,��쐼,6.1,��
2017/11/20,23:20,0.929,1.506,0.957,1.787,1.229,0.504,0.913,0.857,��쐼,6.9,��
2017/11/20,23:30,0.933,1.505,0.958,1.787,1.231,0.502,0.915,0.856,�쐼,5.9,��
2017/11/20,23:40,0.930,1.507,0.958,1.790,1.228,0.504,0.915,0.858,�쐼,5.8,��
2017/11/20,23:50,0.929,1.506,0.958,1.788,1.229,0.504,0.914,0.857,�쐼,4.2,��
